Satellite: OKEAN-4
Catalog number: 23317
Epoch time:      09239.70207422
Element set:       1
Inclination:      082.5378 deg
RA of node:       267.7500 deg
Eccentricity:    0.0023594
Arg of perigee:   125.8606 deg
Mean anomaly:     234.4818 deg
Mean motion:   14.82715323 rev/day
Decay rate:       -1.6e-07 rev/day^2
Epoch rev:           80296
Checksum:              289

Satellite: NOAA-14
Catalog number: 23455
Epoch time:      09238.66005906
Element set:    0736
Inclination:      098.9048 deg
RA of node:       316.0801 deg
Eccentricity:    0.0009165
Arg of perigee:   357.1268 deg
Mean anomaly:     002.9852 deg
Mean motion:   14.13767776 rev/day
Decay rate:      -2.26e-06 rev/day^2
Epoch rev:           75588
Checksum:              333

Satellite: NOAA-15
Catalog number: 25338
Epoch time:      09238.84119131
Element set:    0058
Inclination:      098.5904 deg
RA of node:       226.5195 deg
Eccentricity:    0.0010143
Arg of perigee:   206.9287 deg
Mean anomaly:     153.1356 deg
Mean motion:   14.24781511 rev/day
Decay rate:        8.5e-07 rev/day^2
Epoch rev:           58683
Checksum:              310

Satellite: RESURS
Catalog number: 25394
Epoch time:      09239.68045828
Element set:     295
Inclination:      098.3346 deg
RA of node:       268.3759 deg
Eccentricity:    0.0002137
Arg of perigee:   028.0750 deg
Mean anomaly:     332.0544 deg
Mean motion:   14.24188662 rev/day
Decay rate:       -6.0e-08 rev/day^2
Epoch rev:           57857
Checksum:              324

Satellite: FENGYUN1
Catalog number: 25730
Epoch time:      09238.92181574
Element set:    0838
Inclination:      098.7589 deg
RA of node:       206.9713 deg
Eccentricity:    0.0023056
Arg of perigee:   018.7452 deg
Mean anomaly:     341.4562 deg
Mean motion:   14.07963102 rev/day
Decay rate:       2.53e-06 rev/day^2
Epoch rev:           53027
Checksum:              307

Satellite: OKEAN-0
Catalog number: 25860
Epoch time:      09238.51915765
Element set:    0770
Inclination:      097.7931 deg
RA of node:       216.9296 deg
Eccentricity:    0.0001054
Arg of perigee:   039.2444 deg
Mean anomaly:     320.8841 deg
Mean motion:   14.73584875 rev/day
Decay rate:        1.0e-08 rev/day^2
Epoch rev:           54350
Checksum:              311

Satellite: NOAA-16
Catalog number: 26536
Epoch time:      09238.84326410
Element set:    0536
Inclination:      099.1788 deg
RA of node:       244.2283 deg
Eccentricity:    0.0011512
Arg of perigee:   084.5033 deg
Mean anomaly:     275.7427 deg
Mean motion:   14.12531138 rev/day
Decay rate:       1.47e-06 rev/day^2
Epoch rev:           46027
Checksum:              297

Satellite: NOAA-17
Catalog number: 27453
Epoch time:      09238.68294984
Element set:    0536
Inclination:      098.4770 deg
RA of node:       295.3035 deg
Eccentricity:    0.0010632
Arg of perigee:   278.3849 deg
Mean anomaly:     081.6109 deg
Mean motion:   14.24086837 rev/day
Decay rate:       1.68e-06 rev/day^2
Epoch rev:           37278
Checksum:              350

Satellite: NOAA-18
Catalog number: 28654
Epoch time:      09238.66095908
Element set:    0022
Inclination:      098.9103 deg
RA of node:       181.3662 deg
Eccentricity:    0.0014592
Arg of perigee:   160.3555 deg
Mean anomaly:     199.8171 deg
Mean motion:   14.11280760 rev/day
Decay rate:        2.0e-07 rev/day^2
Epoch rev:           21989
Checksum:              314

Satellite: NOAA-19
Catalog number: 33591
Epoch time:      09238.65613637
Element set:    0227
Inclination:      098.7493 deg
RA of node:       182.5970 deg
Eccentricity:    0.0015039
Arg of perigee:   046.5168 deg
Mean anomaly:     313.7245 deg
Mean motion:   14.10979783 rev/day
Decay rate:      -1.77e-06 rev/day^2
Epoch rev:           02837
Checksum:              341

/EX
SB KEPS @ AMSAT  $ORB09239.M
Orbital Elements  09239.MISC

HR AMSAT ORBITAL ELEMENTS FOR MANNED AND MISCELLANEOUS SATELLITES
FROM WA5QGD FORT WORTH,TX August 27, 2009
Send Subscribe/unsubscribe to KEPS at 
http://www.amsat.org/mailman/listinfo/keps
BID: ORB09239.M
TO ALL RADIO AMATEURS BT

Satellite: HUBBLE
Catalog number: 20580
Epoch time:      09237.73813890
Element set:    0438
Inclination:      028.4706 deg
RA of node:       008.3676 deg
Eccentricity:    0.0003213
Arg of perigee:   300.6862 deg
Mean anomaly:     059.3408 deg
Mean motion:   15.00824251 rev/day
Decay rate:       2.81e-06 rev/day^2
Epoch rev:           86031
Checksum:              276

Satellite: ISS
Catalog number: 25544
Epoch time:      09239.72612858
Element set:     495
Inclination:      051.6401 deg
RA of node:       299.6049 deg
Eccentricity:    0.0008936
Arg of perigee:   024.4566 deg
Mean anomaly:     335.7383 deg
Mean motion:   15.73800293 rev/day
Decay rate:      8.596e-05 rev/day^2
Epoch rev:           61722
Checksum:              333

Satellite: CO-58
Catalog number: 28895
Epoch time:      09239.69263419
Element set:     380
Inclination:      098.0474 deg
RA of node:       128.2698 deg
Eccentricity:    0.0018780
Arg of perigee:   122.2545 deg
Mean anomaly:     238.0475 deg
Mean motion:   14.59790323 rev/day
Decay rate:        5.9e-07 rev/day^2
Epoch rev:           20416
Checksum:              342

